Weather in Minderla

Russia / Krasnoyarsk Krai     56°26′14″N   92°59′20″E
temp.,
°C
wind,
m/s
gust,
m/s
humid.,
%
clouds,
%
prec.,
mm/h
press.,
hPa
HPBL,
m
14 june, mon
mon1401:00+11w3897100 0.7 1009417
04:00+10nnw589699 0.2 1010607
07:00+9nnw58873 0.2 1013505
10:00+13nnw575919 0.0 10141496
13:00+16nnw584388 0.0 10142556
16:00+17n574197 0.0 10142484
19:00+16nnw37513 0.0 1015413
22:00+10wnw33583 0.0 101731
15 june, tue
tue1501:00+8w335710 0.0 101730
04:00+7w226680 0.0 101815
07:00+11w24645 0.0 1018203
10:00+17wnw344564 0.0 10171233
13:00+19wnw3538100 0.0 10152410
16:00+18nw4551100 0.0 10151325
19:00+17sw2265100 0.0 101538
22:00+12w3579100 0.0 101579
16 june, wed
wed1601:00+12w2490100 0.0 101599
04:00+11s1194100 0.0 101511
07:00+11s2688100 0.1 1015210
10:00+12s3788100 0.0 1015325
13:00+16ssw3481100 0.1 1013754
16:00+14s3595100 0.6 1012208
19:00+17s599012 1.9 1011573
22:00+15sw3695100 1.9 1010133
17 june, thu
thu1701:00+14ssw2496100 2.0 100984
04:00+13sw2297100 1.2 100941
07:00+15sw399380 1.7 1008389
10:00+16wsw4993100 0.4 1008468
13:00+20w577898 1.6 10071041
16:00+21wnw47725 1.2 1006998
19:00+21n367796 1.8 1005239
22:00+16wnw1292100 3.0 100613
18 june, fri
fri1801:00+14sw229499 5.6 100518
04:00+14s1194100 0.0 100411
07:00+15sse1194100 1.9 1004116
10:00+15sse2496100 0.6 1004262
13:00+18ese3386100 0.6 1003516
16:00+17ene4686100 2.5 1002549
19:00+15nne3797100 16.2 1002353
22:00+14nne3598100 1.6 1003165